DELTA 1 DEB, 3812

Orbit data source: Space-Track

DELTA 1 DEB, 3812 is space debris in SSO originally from a launch on Sun, 15 Dec 1968 UTC launched from the Air Force Western Test Range (AFWTR). Debris objects in space refer to the collection of defunct objects orbiting the Earth. Examples of debris include non-operational satellites, rocket bodies, and fragments generated from explosions, collisions, or faulty payload assembly.

Loading next visibility...
DELTA 1 DEB details
Identifier
3812, 1968-114D
Orbit
SSO
Last TLE update2 days ago
Origin
Flag of USGSFC (US)
ManufacturerUnknown
MissionSpacecraft
Bus & MotorUnknown
MassUnknown
Launch date (UTC)
1968-12-15 (56 years ago)
Launch vehicleUnknown
Launch site
Air Force Western Test Range (AFWTR)
Object type
Payload
Rocket body
Debris
Shape & HBRUnknown
Radar Cross SectionSmall (<0.1 m²)

Expand to show TLE details & history

TLE from 2 days ago
0 DELTA 1 DEB
1 03812U 68114D   24360.24552399 -.00000004  00000-0  32290-3 0  9992
2 03812 102.4585   1.6122 0071026  71.1823 310.4697 12.37769768530948
Epoch: 2024-12-25T05:53Z
Definitive object data (Epoch: 2024-12-25T05:53:33.272Z)
Latitude20.51966°
Longitude174.26161°
Altitude1,482.097 km
Speed7.14 km/s
True Right ascension23h 47m 34s
True Declination20° 25' 03"
Sunlit
Object was in daylight at TLE epoch
Visualization TLE readout
Latitude24.75692°
Longitude6.39403°
Altitude1,514.696 km
Speed7.112 km/s
Apparent Right ascension10h 23m 19s
Apparent Declination-5° 00' 12"
Sunlit
Object is in daylight
Visualization observer readout
Local Sidereal Time18:50:16
Azimuth291.561° WNW
Elevation-30.863°
Doppler factor1
Orbital elements
Apogee altitude1,569.729 km
Perigee altitude1,457.624 km
Semi-major axis7,891.814 km
Eccentricity0.0071026
Inclination102.4585°
RAAN1.6122°
Arg. of periapsis71.1823°
True anomaly309.84695°
Mean anomaly310.4697°
Eccentric anomaly310.15868°
Mean motion3.09584 °/min
BSTAR0.0003229
Orbital period116.29 mins
Loading maneuver chart data...
Loading historical data...
Loading historical data...
Loading historical data...
Loading historical data...
Loading historical data...
Loading historical data...
Loading historical data...

DELTA 1 DEB Visibility forecast

Observer location: undefined°, undefined

Span
Click to sort rows by Start time (UTC) header in descending order
Start Az.
Max El. time (UTC)
Max El. Az.
Max El.
End time (UTC)
End Az.
13 mins2024-12-26 22:39:36.639Z113.489° SE2024-12-26 22:46:36.639Z52.289° ENE27.927°2024-12-26 22:52:36.639Z1.436° NNE
15 mins2024-12-27 00:32:36.639Z178.248° S2024-12-27 00:39:36.639Z247.973° W40.848°2024-12-27 00:47:36.639Z333.911° NNW
15 mins2024-12-27 12:43:36.639Z30.187° NE2024-12-27 12:50:36.639Z99.912° ESE38.569°2024-12-27 12:58:36.639Z177.614° S
13 mins2024-12-27 14:38:36.639Z357.675° N2024-12-27 14:44:36.639Z299.852° NW30.959°2024-12-27 14:51:36.639Z240.376° WSW
|